Regional Weather Roundup
Issued by NWS Binghamton, NY

Home | Current Version | Previous Version | Text Only | Print | Product List | Glossary On
Versions: 1 2 3 4 5 6 7 8 9 10 11 12 13 14 15 16 17 18 19 20 21 22 23 24 25 26 27
000
ASUS41 KBGM 221910
RWRBGM

REGIONAL WEATHER ROUNDUP
NATIONAL WEATHER SERVICE BINGHAMTON NY
200 PM EST SUN JAN 22 2017

Note: "fair" indicates few or no clouds below 12,000 feet with no
significant weather and/or obstructions to visibility.

* = Station(s) that does not report precipitation, such as rain,
snow, etc, also no thunder or fog.

NYZ009-015>018-022>025-036-037-044>046-055>057-062-222000
...Central New York...

CITY           SKY/WX    TMP DP  RH WIND       PRES   REMARKS
Binghamton     PTSUNNY   50  45  83 E3        29.65F
Cortland       FAIR      54  48  82 E5        29.65F
Dansville      MOSUNNY   49  43  80 NW5       29.65F
Elmira         PTSUNNY   56  46  69 CALM      29.63F
Seneca Falls   PTCLDY    54  46  76 N6        29.67F
Ithaca         MOSUNNY   57  48  72 VRB3      29.66F
Hamilton       SUNNY     52  46  82 NE6       29.67F
Monticello     MOSUNNY   54  48  82 SE9       29.68F
Norwich        SUNNY     55  46  71 N6        29.66S
Oneonta        SUNNY     55  43  62 NE5       29.66F
Penn Yan       MOSUNNY   53  45  74 VRB3      29.66F
Rome           CLOUDY    50  44  80 E9        29.71F
Sidney         SUNNY     55  48  76 CALM      29.65F
Syracuse       PTSUNNY   50  43  77 NE7       29.68F
$$

PAZ038>040-043-044-047-048-072-222000
...Northeast Pennsylvania...

CITY           SKY/WX    TMP DP  RH WIND       PRES   REMARKS
Hazleton       CLOUDY    50  46  87 E6        29.65F FOG
Scranton       MOSUNNY   51  47  86 VRB3      29.62F
$$
&&
KEY
WCI = Wind Chill Index
VSB = Visibility
HX  = Heat Index
$$




USA.gov is the U.S. government's official web portal to all federal, state and local government web resources and services.